Glendive, MT

7:48 PM MDT on May 28, 2017 (GMT -0600)
Dawson Community

Weather History for KGDV - March, 2014

Change the Weather History Date:

Thursday, March 27, 2014

  Actual Average Record
Temperature  
Mean Temperature 27 °F -  
Max Temperature 37 °F 45 °F 68 °F (2015)
Min Temperature 17 °F 24 °F 10 °F (2009)
Degree Days  
Heating Degree Days 38    
Moisture  
Dew Point 16 °F    
Average Humidity 64    
Maximum Humidity 93    
Minimum Humidity 38    
Precipitation  
Precipitation 0.00 in - - ()
Sea Level Pressure  
Sea Level Pressure 29.78 in    
Wind  
Wind Speed 9 mph (NE)    
Max Wind Speed 15 mph    
Max Gust Speed -    
Visibility 10 miles    
Events      
Averages and records for this station are not official NWS values.
T = Trace of Precipitation, MM = Missing Value Source: NWS Daily Summary

Daily Weather History Graph

Daily Weather History Graph

Search for Another Location

Airport or City:

Trip Planner

Search our weather history database for the weather conditions in past years. The results will help you decide how hot, cold, wet, or windy it might be!

Date:

Astronomy

Mar. 27, 2014 Rise Set
Actual Time 6:48 AM MDT 7:21 PM MDT
Civil Twilight 6:17 AM MDT 7:52 PM MDT
Nautical Twilight 5:41 AM MDT 8:29 PM MDT
Astronomical Twilight 5:03 AM MDT 9:07 PM MDT
Moon 4:53 AM MDT (3/27) 4:01 PM MDT (3/27)
Length of Visible Light 13h 35m
Length of Day
12h 33m
Waning Crescent, 12% of the Moon is Illuminated
Mar 27
Waning Crescent
Mar 30
New
Apr 7
First Quarter
Apr 15
Full
Apr 22
Last Quarter

Hourly Weather History & Observations

Time (MDT) Temp. Windchill Dew Point Humidity Pressure Visibility Wind Dir Wind Speed Gust Speed Precip Events Conditions
12:15 AM 24.8 °F 15.3 °F 15.8 °F 69% 29.66 in 10.0 mi NNE 9.2 mph - N/A   Clear
12:35 AM 24.8 °F 14.6 °F 15.8 °F 69% 29.66 in 10.0 mi NNE 10.4 mph - N/A   Clear
12:55 AM 24.8 °F 14.6 °F 15.8 °F 69% 29.67 in 10.0 mi NNE 10.4 mph - N/A   Clear
1:15 AM 23.0 °F 11.7 °F 15.8 °F 74% 29.68 in 10.0 mi NNE 11.5 mph - N/A   Clear
1:35 AM 23.0 °F 11.7 °F 15.8 °F 74% 29.68 in 10.0 mi NNE 11.5 mph - N/A   Clear
1:55 AM 23.0 °F 13.1 °F 14.0 °F 68% 29.69 in 10.0 mi NNE 9.2 mph - N/A   Clear
2:15 AM 21.2 °F 10.1 °F 15.8 °F 80% 29.69 in 10.0 mi NNE 10.4 mph - N/A   Clear
2:35 AM 21.2 °F 10.9 °F 15.8 °F 80% 29.70 in 10.0 mi NNE 9.2 mph - N/A   Clear
2:55 AM 21.2 °F 11.7 °F 15.8 °F 80% 29.70 in 10.0 mi NNE 8.1 mph - N/A   Clear
3:15 AM 21.2 °F 13.6 °F 15.8 °F 80% 29.71 in 10.0 mi North 5.8 mph - N/A   Clear
3:35 AM 21.2 °F 12.6 °F 15.8 °F 80% 29.71 in 10.0 mi North 6.9 mph - N/A   Clear
3:55 AM 19.4 °F 8.6 °F 15.8 °F 86% 29.71 in 10.0 mi NNE 9.2 mph - N/A   Clear
4:15 AM 19.4 °F 7.2 °F 15.8 °F 86% 29.72 in 10.0 mi NNE 11.5 mph - N/A   Clear
4:35 AM 19.4 °F 7.9 °F 15.8 °F 86% 29.72 in 10.0 mi NNE 10.4 mph - N/A   Clear
4:55 AM 19.4 °F 9.5 °F 15.8 °F 86% 29.73 in 10.0 mi NNE 8.1 mph - N/A   Clear
5:15 AM 17.6 °F 7.3 °F 14.0 °F 86% 29.74 in 10.0 mi NNE 8.1 mph - N/A   Clear
5:35 AM 19.4 °F 8.6 °F 15.8 °F 86% 29.75 in 10.0 mi NNE 9.2 mph - N/A   Clear
5:55 AM 17.6 °F 7.3 °F 14.0 °F 86% 29.75 in 10.0 mi NNE 8.1 mph - N/A   Clear
6:15 AM 17.6 °F 5.0 °F 15.8 °F 93% 29.76 in 10.0 mi NE 11.5 mph - N/A   Clear
6:35 AM 17.6 °F 5.7 °F 15.8 °F 93% 29.76 in 10.0 mi NE 10.4 mph - N/A   Clear
6:55 AM 17.6 °F 5.7 °F 14.0 °F 86% 29.77 in 10.0 mi NNE 10.4 mph - N/A   Clear
7:15 AM 17.6 °F 8.2 °F 14.0 °F 86% 29.79 in 10.0 mi NNE 6.9 mph - N/A   Clear
7:35 AM 19.4 °F 9.5 °F 15.8 °F 86% 29.80 in 10.0 mi NE 8.1 mph - N/A   Clear
7:55 AM 19.4 °F 10.4 °F 15.8 °F 86% 29.80 in 10.0 mi NE 6.9 mph - N/A   Clear
8:15 AM 19.4 °F 8.6 °F 15.8 °F 86% 29.81 in 10.0 mi ENE 9.2 mph - N/A   Scattered Clouds
8:35 AM 21.2 °F 9.5 °F 15.8 °F 80% 29.81 in 10.0 mi ENE 11.5 mph - N/A   Scattered Clouds
8:55 AM 21.2 °F 11.7 °F 17.6 °F 86% 29.82 in 10.0 mi ENE 8.1 mph - N/A   Mostly Cloudy
9:15 AM 21.2 °F 10.9 °F 17.6 °F 86% 29.83 in 10.0 mi ENE 9.2 mph - N/A   Mostly Cloudy
9:35 AM 21.2 °F 11.7 °F 17.6 °F 86% 29.83 in 10.0 mi ENE 8.1 mph - N/A   Overcast
9:55 AM 23.0 °F 13.1 °F 17.6 °F 80% 29.83 in 10.0 mi ENE 9.2 mph - N/A   Overcast
10:15 AM 24.8 °F 16.1 °F 17.6 °F 74% 29.83 in 10.0 mi ENE 8.1 mph - N/A   Overcast
10:35 AM 24.8 °F 16.1 °F 17.6 °F 74% 29.83 in 10.0 mi East 8.1 mph - N/A   Overcast
10:55 AM 24.8 °F 16.9 °F 17.6 °F 74% 29.84 in 10.0 mi East 6.9 mph - N/A   Overcast
11:15 AM 26.6 °F 21.2 °F 17.6 °F 69% 29.83 in 10.0 mi NE 4.6 mph - N/A   Overcast
11:35 AM 28.4 °F 24.6 °F 17.6 °F 64% 29.80 in 9.0 mi ESE 3.5 mph - N/A   Partly Cloudy
11:55 AM 28.4 °F 20.4 °F 17.6 °F 64% 29.80 in 10.0 mi ESE 8.1 mph - N/A   Scattered Clouds
12:15 PM 30.2 °F 26.7 °F 17.6 °F 60% 29.81 in 10.0 mi NW 3.5 mph - N/A   Scattered Clouds
12:35 PM 32.0 °F 27.5 °F 15.8 °F 51% 29.80 in 10.0 mi East 4.6 mph - N/A   Clear
12:55 PM 33.8 °F 28.6 °F 15.8 °F 48% 29.80 in 10.0 mi East 5.8 mph - N/A   Clear
1:15 PM 33.8 °F 27.7 °F 15.8 °F 48% 29.80 in 10.0 mi East 6.9 mph - N/A   Clear
1:35 PM 35.6 °F 29.9 °F 15.8 °F 44% 29.80 in 10.0 mi SE 6.9 mph - N/A   Clear
1:55 PM 35.6 °F 30.7 °F 12.2 °F 38% 29.80 in 10.0 mi East 5.8 mph - N/A   Clear
2:15 PM 35.6 °F 29.9 °F 14.0 °F 41% 29.79 in 10.0 mi East 6.9 mph - N/A   Clear
2:35 PM 37.4 °F 32.1 °F 15.8 °F 41% 29.79 in 10.0 mi East 6.9 mph - N/A   Clear
2:55 PM 37.4 °F 32.1 °F 15.8 °F 41% 29.78 in 10.0 mi East 6.9 mph - N/A   Clear
3:15 PM 37.4 °F 32.1 °F 15.8 °F 41% 29.78 in 10.0 mi East 6.9 mph - N/A   Clear
3:35 PM 37.4 °F 33.8 °F 15.8 °F 41% 29.77 in 10.0 mi East 4.6 mph - N/A   Clear
3:55 PM 37.4 °F 32.1 °F 15.8 °F 41% 29.77 in 10.0 mi East 6.9 mph - N/A   Clear
4:15 PM 37.4 °F 32.8 °F 17.6 °F 45% 29.77 in 10.0 mi East 5.8 mph - N/A   Mostly Cloudy
4:35 PM 37.4 °F 33.8 °F 15.8 °F 41% 29.77 in 10.0 mi East 4.6 mph - N/A   Mostly Cloudy
4:55 PM 37.4 °F 32.8 °F 15.8 °F 41% 29.77 in 10.0 mi SE 5.8 mph - N/A   Mostly Cloudy
5:15 PM 37.4 °F 33.8 °F 17.6 °F 45% 29.77 in 10.0 mi ESE 4.6 mph - N/A   Scattered Clouds
5:35 PM 37.4 °F 33.8 °F 15.8 °F 41% 29.77 in 10.0 mi East 4.6 mph - N/A   Clear
5:55 PM 37.4 °F 32.8 °F 17.6 °F 45% 29.77 in 10.0 mi East 5.8 mph - N/A   Clear
6:15 PM 37.4 °F 32.1 °F 17.6 °F 45% 29.78 in 10.0 mi East 6.9 mph - N/A   Scattered Clouds
6:35 PM 37.4 °F 32.1 °F 17.6 °F 45% 29.78 in 10.0 mi East 6.9 mph - N/A   Mostly Cloudy
6:55 PM 35.6 °F 29.2 °F 15.8 °F 44% 29.78 in 10.0 mi East 8.1 mph - N/A   Partly Cloudy
7:15 PM 35.6 °F 29.2 °F 17.6 °F 48% 29.78 in 10.0 mi ENE 8.1 mph - N/A   Partly Cloudy
7:35 PM 33.8 °F 27.0 °F 17.6 °F 52% 29.79 in 10.0 mi ENE 8.1 mph - N/A   Mostly Cloudy
7:55 PM 35.6 °F 28.0 °F 17.6 °F 48% 29.80 in 10.0 mi ENE 10.4 mph - N/A   Overcast
8:15 PM 33.8 °F 25.8 °F 15.8 °F 48% 29.81 in 10.0 mi NNE 10.4 mph - N/A   Mostly Cloudy
8:35 PM 32.0 °F 24.2 °F 15.8 °F 51% 29.82 in 10.0 mi NE 9.2 mph - N/A   Partly Cloudy
8:55 PM 32.0 °F 23.0 °F 15.8 °F 51% 29.82 in 10.0 mi NE 11.5 mph - N/A   Clear
9:15 PM 32.0 °F 23.0 °F 15.8 °F 51% 29.83 in 10.0 mi NE 11.5 mph - N/A   Clear
9:55 PM 30.2 °F 20.2 °F 15.8 °F 55% 29.84 in 10.0 mi NE 12.7 mph - N/A   Mostly Cloudy
10:15 PM 30.2 °F 20.2 °F 14.0 °F 51% 29.84 in 10.0 mi NE 12.7 mph - N/A   Overcast
10:35 PM 30.2 °F 19.3 °F 12.2 °F 47% 29.85 in 10.0 mi NE 15.0 mph - N/A   Scattered Clouds
10:55 PM 30.2 °F 19.8 °F 12.2 °F 47% 29.85 in 10.0 mi NE 13.8 mph - N/A   Clear
11:15 PM 28.4 °F 18.5 °F 14.0 °F 55% 29.85 in 10.0 mi NE 11.5 mph - N/A   Clear
11:35 PM 28.4 °F 18.0 °F 14.0 °F 55% 29.85 in 10.0 mi NE 12.7 mph - N/A   Clear
11:55 PM 28.4 °F 19.1 °F 14.0 °F 55% 29.85 in 10.0 mi NE 10.4 mph - N/A   Clear